Multibeam Report for NBP0603


Ship Name: Nathaniel B. Palmer
Chief Scientist: Domack, Eugene
Hamilton College
Source Organization: Marine Geoscience Data System (MGDS)
Start Date: 2006-04-12
End Date: 2006-05-05


View ISO Metadata

Visit the full NCEI Bathymetry Viewer


Multibeam Bathymetry

Cruise Details

Project: Paleohistory of the Larsen Ice Shelf System
Instrument: Simrad EM120

Data Quality

Number of Files: 511
Number of Records: 616587
BATHYMETRY DATA Quantity Percentage
Number of Beams 117768117 100%
Number of Good Beams 74748306 63.47%
Number of Zero Beams 43019811 36.53%
Number of Flagged Beams 0 0%

Navigation Totals

Total Time: 482.2742 hours
Total Track Length: 6118.8852 km
Average Speed: 12.688 km/hr (6.8510 knots)

Cruise Bounds

Northern Extent: -52.847187
Southern Extent: -66.40406
Western Extent: -67.857
Eastern Extent: -43.175106

Limits

Minimum Sonar Depth 0 Maximum Sonar Depth 31457.2793
Minimum Altitude 0 Maximum Altitude 6082.3999
Minimum Depth 30.19 Maximum Depth 6906.98

File Information

Full Resolution Bathymetry as collected (raw): 510

Files File Size Description
0001_20060412_131742_raw.all.mb56.gz 48.29MB Simrad multibeam vendor format
0001_20060427_095631_raw.all.mb56.gz 1.74MB Simrad multibeam vendor format
0002_20060412_141742_raw.all.mb56.gz 1.61MB Simrad multibeam vendor format
0003_20060412_141950_raw.all.mb56.gz 48.68MB Simrad multibeam vendor format
0004_20060412_151950_raw.all.mb56.gz 45.94MB Simrad multibeam vendor format
0005_20060412_161628_raw.all.mb56.gz 49.62MB Simrad multibeam vendor format
0006_20060412_171628_raw.all.mb56.gz 48.64MB Simrad multibeam vendor format
0007_20060412_181628_raw.all.mb56.gz 46.90MB Simrad multibeam vendor format
0008_20060412_191628_raw.all.mb56.gz 46.53MB Simrad multibeam vendor format
0009_20060412_201628_raw.all.mb56.gz 45.65MB Simrad multibeam vendor format
0010_20060412_211628_raw.all.mb56.gz 38.30MB Simrad multibeam vendor format
0011_20060412_221101_raw.all.mb56.gz 45.25MB Simrad multibeam vendor format
0012_20060412_231059_raw.all.mb56.gz 6.14MB Simrad multibeam vendor format
0013_20060412_231901_raw.all.mb56.gz 33.96MB Simrad multibeam vendor format
0014_20060413_000520_raw.all.mb56.gz 7.89MB Simrad multibeam vendor format
0015_20060413_001734_raw.all.mb56.gz 21.71MB Simrad multibeam vendor format
0016_20060413_004904_raw.all.mb56.gz 5.99MB Simrad multibeam vendor format
0017_20060413_005751_raw.all.mb56.gz 43.44MB Simrad multibeam vendor format
0018_20060413_015751_raw.all.mb56.gz 42.07MB Simrad multibeam vendor format
0019_20060413_025752_raw.all.mb56.gz 41.76MB Simrad multibeam vendor format
0020_20060413_035752_raw.all.mb56.gz 40.96MB Simrad multibeam vendor format
0021_20060413_045752_raw.all.mb56.gz 36.85MB Simrad multibeam vendor format
0022_20060413_055752_raw.all.mb56.gz 14.19MB Simrad multibeam vendor format
0023_20060413_065752_raw.all.mb56.gz 8.40MB Simrad multibeam vendor format
0024_20060413_075752_raw.all.mb56.gz 7.29MB Simrad multibeam vendor format
0025_20060413_085752_raw.all.mb56.gz 6.37MB Simrad multibeam vendor format
0026_20060413_095752_raw.all.mb56.gz 7.23MB Simrad multibeam vendor format
0027_20060413_105752_raw.all.mb56.gz 7.19MB Simrad multibeam vendor format
0028_20060413_115752_raw.all.mb56.gz 7.51MB Simrad multibeam vendor format
0029_20060413_125753_raw.all.mb56.gz 7.51MB Simrad multibeam vendor format
0030_20060413_135753_raw.all.mb56.gz 7.61MB Simrad multibeam vendor format
0031_20060413_145753_raw.all.mb56.gz 7.40MB Simrad multibeam vendor format
0032_20060413_155753_raw.all.mb56.gz 7.62MB Simrad multibeam vendor format
0033_20060413_165753_raw.all.mb56.gz 217.3KB Simrad multibeam vendor format
0034_20060413_165936_raw.all.mb56.gz 7.81MB Simrad multibeam vendor format
0035_20060413_175936_raw.all.mb56.gz 7.61MB Simrad multibeam vendor format
0036_20060413_185937_raw.all.mb56.gz 7.30MB Simrad multibeam vendor format
0037_20060413_195937_raw.all.mb56.gz 6.97MB Simrad multibeam vendor format
0038_20060413_205937_raw.all.mb56.gz 6.82MB Simrad multibeam vendor format
0039_20060413_215937_raw.all.mb56.gz 6.58MB Simrad multibeam vendor format
0040_20060413_225937_raw.all.mb56.gz 6.42MB Simrad multibeam vendor format
0041_20060413_235937_raw.all.mb56.gz 6.24MB Simrad multibeam vendor format
0042_20060414_005937_raw.all.mb56.gz 6.45MB Simrad multibeam vendor format
0043_20060414_015937_raw.all.mb56.gz 6.38MB Simrad multibeam vendor format
0044_20060414_025937_raw.all.mb56.gz 5.58MB Simrad multibeam vendor format
0045_20060414_035937_raw.all.mb56.gz 5.47MB Simrad multibeam vendor format
0046_20060414_045938_raw.all.mb56.gz 5.36MB Simrad multibeam vendor format
0047_20060414_055938_raw.all.mb56.gz 5.26MB Simrad multibeam vendor format
0048_20060414_065938_raw.all.mb56.gz 5.29MB Simrad multibeam vendor format
0049_20060414_075938_raw.all.mb56.gz 5.65MB Simrad multibeam vendor format
0050_20060414_085938_raw.all.mb56.gz 5.90MB Simrad multibeam vendor format
0051_20060414_095938_raw.all.mb56.gz 6.10MB Simrad multibeam vendor format
0052_20060414_105938_raw.all.mb56.gz 7.45MB Simrad multibeam vendor format
0053_20060414_115938_raw.all.mb56.gz 6.21MB Simrad multibeam vendor format
0054_20060414_125938_raw.all.mb56.gz 5.96MB Simrad multibeam vendor format
0055_20060414_135938_raw.all.mb56.gz 5.80MB Simrad multibeam vendor format
0056_20060414_145938_raw.all.mb56.gz 6.40MB Simrad multibeam vendor format
0057_20060414_155939_raw.all.mb56.gz 6.28MB Simrad multibeam vendor format
0058_20060414_165939_raw.all.mb56.gz 6.20MB Simrad multibeam vendor format
0059_20060414_175939_raw.all.mb56.gz 1.73MB Simrad multibeam vendor format
0060_20060414_181833_raw.all.mb56.gz 5.51MB Simrad multibeam vendor format
0061_20060414_191833_raw.all.mb56.gz 6.22MB Simrad multibeam vendor format
0062_20060414_201833_raw.all.mb56.gz 6.06MB Simrad multibeam vendor format
0063_20060414_211833_raw.all.mb56.gz 6.22MB Simrad multibeam vendor format
0064_20060414_221833_raw.all.mb56.gz 6.18MB Simrad multibeam vendor format
0065_20060414_231834_raw.all.mb56.gz 6.27MB Simrad multibeam vendor format
0066_20060415_001834_raw.all.mb56.gz 6.26MB Simrad multibeam vendor format
0067_20060415_011834_raw.all.mb56.gz 6.40MB Simrad multibeam vendor format
0068_20060415_021834_raw.all.mb56.gz 6.41MB Simrad multibeam vendor format
0069_20060415_031834_raw.all.mb56.gz 5.80MB Simrad multibeam vendor format
0070_20060415_041834_raw.all.mb56.gz 6.34MB Simrad multibeam vendor format
0071_20060415_051834_raw.all.mb56.gz 6.86MB Simrad multibeam vendor format
0072_20060415_061834_raw.all.mb56.gz 12.09MB Simrad multibeam vendor format
0073_20060415_071834_raw.all.mb56.gz 18.44MB Simrad multibeam vendor format
0074_20060415_081834_raw.all.mb56.gz 18.85MB Simrad multibeam vendor format
0075_20060415_091834_raw.all.mb56.gz 19.49MB Simrad multibeam vendor format
0076_20060415_101835_raw.all.mb56.gz 8.53MB Simrad multibeam vendor format
0077_20060415_111835_raw.all.mb56.gz 7.58MB Simrad multibeam vendor format
0078_20060415_121835_raw.all.mb56.gz 11.99MB Simrad multibeam vendor format
0079_20060415_131835_raw.all.mb56.gz 20.42MB Simrad multibeam vendor format
0080_20060415_141835_raw.all.mb56.gz 21.01MB Simrad multibeam vendor format
0081_20060415_150709_raw.all.mb56.gz 31.32MB Simrad multibeam vendor format
0082_20060415_160710_raw.all.mb56.gz 48.72MB Simrad multibeam vendor format
0083_20060415_170710_raw.all.mb56.gz 32.87MB Simrad multibeam vendor format
0084_20060415_180710_raw.all.mb56.gz 22.78MB Simrad multibeam vendor format
0085_20060415_190710_raw.all.mb56.gz 19.96MB Simrad multibeam vendor format
0086_20060415_200710_raw.all.mb56.gz 19.50MB Simrad multibeam vendor format
0087_20060415_210710_raw.all.mb56.gz 20.70MB Simrad multibeam vendor format
0088_20060415_220710_raw.all.mb56.gz 19.97MB Simrad multibeam vendor format
0089_20060415_230710_raw.all.mb56.gz 15.38MB Simrad multibeam vendor format
0090_20060416_000710_raw.all.mb56.gz 12.97MB Simrad multibeam vendor format
0091_20060416_010710_raw.all.mb56.gz 14.00MB Simrad multibeam vendor format
0092_20060416_020710_raw.all.mb56.gz 13.92MB Simrad multibeam vendor format
0093_20060416_030711_raw.all.mb56.gz 14.14MB Simrad multibeam vendor format
0094_20060416_040711_raw.all.mb56.gz 13.74MB Simrad multibeam vendor format
0095_20060416_050711_raw.all.mb56.gz 18.23MB Simrad multibeam vendor format
0096_20060416_060711_raw.all.mb56.gz 16.63MB Simrad multibeam vendor format
0097_20060416_070711_raw.all.mb56.gz 12.07MB Simrad multibeam vendor format
0098_20060416_080711_raw.all.mb56.gz 10.16MB Simrad multibeam vendor format
0099_20060416_090711_raw.all.mb56.gz 11.30MB Simrad multibeam vendor format
0100_20060416_100711_raw.all.mb56.gz 12.98MB Simrad multibeam vendor format
0101_20060416_110711_raw.all.mb56.gz 12.18MB Simrad multibeam vendor format
0102_20060416_120712_raw.all.mb56.gz 18.50MB Simrad multibeam vendor format
0103_20060416_130712_raw.all.mb56.gz 21.30MB Simrad multibeam vendor format
0104_20060416_140712_raw.all.mb56.gz 10.59MB Simrad multibeam vendor format
0105_20060416_150712_raw.all.mb56.gz 11.54MB Simrad multibeam vendor format
0106_20060416_160712_raw.all.mb56.gz 12.72MB Simrad multibeam vendor format
0107_20060416_170712.mb57.gz 8.20MB Simrad multibeam processing format
0108_20060416_180712.mb57.gz 10.98MB Simrad multibeam processing format
0109_20060416_190712.mb57.gz 8.74MB Simrad multibeam processing format
0110_20060416_200712.mb57.gz 8.29MB Simrad multibeam processing format
0111_20060416_210712.mb57.gz 8.64MB Simrad multibeam processing format
0112_20060416_220713.mb57.gz 10.91MB Simrad multibeam processing format
0113_20060416_230713.mb57.gz 16.34MB Simrad multibeam processing format
0114_20060417_000713.mb57.gz 28.61MB Simrad multibeam processing format
0116_20060417_020713.mb57.gz 10.89MB Simrad multibeam processing format
0117_20060417_030713.mb57.gz 10.29MB Simrad multibeam processing format
0118_20060417_040713.mb57.gz 13.33MB Simrad multibeam processing format
0119_20060417_050713.mb57.gz 9.79MB Simrad multibeam processing format
0120_20060417_060713.mb57.gz 9.44MB Simrad multibeam processing format
0121_20060417_070713.mb57.gz 10.60MB Simrad multibeam processing format
0122_20060417_080714.mb57.gz 8.72MB Simrad multibeam processing format
0123_20060417_090714.mb57.gz 8.44MB Simrad multibeam processing format
0124_20060417_100714.mb57.gz 7.87MB Simrad multibeam processing format
0125_20060417_110714.mb57.gz 14.74MB Simrad multibeam processing format
0126_20060417_120714.mb57.gz 12.52MB Simrad multibeam processing format
0127_20060417_125739.mb57.gz 14.21MB Simrad multibeam processing format
0128_20060417_135739.mb57.gz 14.87MB Simrad multibeam processing format
0129_20060417_145739.mb57.gz 15.87MB Simrad multibeam processing format
0130_20060417_155739.mb57.gz 15.68MB Simrad multibeam processing format
0131_20060417_165739.mb57.gz 14.95MB Simrad multibeam processing format
0132_20060417_175739.mb57.gz 15.62MB Simrad multibeam processing format
0133_20060417_185739.mb57.gz 15.95MB Simrad multibeam processing format
0134_20060417_195739.mb57.gz 16.39MB Simrad multibeam processing format
0135_20060417_205740.mb57.gz 16.84MB Simrad multibeam processing format
0136_20060417_215740.mb57.gz 16.81MB Simrad multibeam processing format
0137_20060417_225740.mb57.gz 18.22MB Simrad multibeam processing format
0138_20060417_235740.mb57.gz 17.64MB Simrad multibeam processing format
0139_20060418_005740.mb57.gz 16.69MB Simrad multibeam processing format
0140_20060418_015740.mb57.gz 16.32MB Simrad multibeam processing format
0141_20060418_025740.mb57.gz 16.07MB Simrad multibeam processing format
0142_20060418_035740.mb57.gz 16.41MB Simrad multibeam processing format
0143_20060418_045741.mb57.gz 11.26MB Simrad multibeam processing format
0144_20060418_055741.mb57.gz 10.43MB Simrad multibeam processing format
0145_20060418_065741.mb57.gz 10.38MB Simrad multibeam processing format
0146_20060418_075741.mb57.gz 10.54MB Simrad multibeam processing format
0147_20060418_085741.mb57.gz 11.45MB Simrad multibeam processing format
0148_20060418_095741.mb57.gz 15.88MB Simrad multibeam processing format
0149_20060418_105741.mb57.gz 10.92MB Simrad multibeam processing format
0150_20060418_115741.mb57.gz 11.46MB Simrad multibeam processing format
0151_20060418_125741.mb57.gz 8.23MB Simrad multibeam processing format
0152_20060418_135742.mb57.gz 11.09MB Simrad multibeam processing format
0153_20060418_145742.mb57.gz 5.51MB Simrad multibeam processing format
0154_20060418_155742.mb57.gz 6.00MB Simrad multibeam processing format
0155_20060418_165742.mb57.gz 10.37MB Simrad multibeam processing format
0156_20060418_175742.mb57.gz 14.63MB Simrad multibeam processing format
0157_20060418_185742.mb57.gz 10.53MB Simrad multibeam processing format
0158_20060418_195742.mb57.gz 7.20MB Simrad multibeam processing format
0159_20060418_205742.mb57.gz 7.48MB Simrad multibeam processing format
0160_20060418_215742.mb57.gz 9.61MB Simrad multibeam processing format
0161_20060418_225742.mb57.gz 18.84MB Simrad multibeam processing format
0162_20060418_235743.mb57.gz 14.51MB Simrad multibeam processing format
0163_20060419_005743.mb57.gz 21.24MB Simrad multibeam processing format
0164_20060419_015743.mb57.gz 14.24MB Simrad multibeam processing format
0165_20060419_025743.mb57.gz 15.66MB Simrad multibeam processing format
0166_20060419_035743.mb57.gz 16.89MB Simrad multibeam processing format
0167_20060419_045743.mb57.gz 13.08MB Simrad multibeam processing format
0168_20060419_055743.mb57.gz 18.30MB Simrad multibeam processing format
0169_20060419_065743.mb57.gz 15.17MB Simrad multibeam processing format
0170_20060419_075743.mb57.gz 11.92MB Simrad multibeam processing format
0171_20060419_085743.mb57.gz 13.55MB Simrad multibeam processing format
0172_20060419_095744.mb57.gz 8.11MB Simrad multibeam processing format
0173_20060419_105744.mb57.gz 13.50MB Simrad multibeam processing format
0174_20060419_115744.mb57.gz 16.36MB Simrad multibeam processing format
0175_20060419_125744.mb57.gz 15.26MB Simrad multibeam processing format
0176_20060419_135744.mb57.gz 12.90MB Simrad multibeam processing format
0177_20060419_145744.mb57.gz 11.32MB Simrad multibeam processing format
0178_20060419_155744.mb57.gz 21.87MB Simrad multibeam processing format
0179_20060419_165745.mb57.gz 22.22MB Simrad multibeam processing format
0180_20060419_175745.mb57.gz 16.92MB Simrad multibeam processing format
0181_20060419_185745.mb57.gz 13.31MB Simrad multibeam processing format
0182_20060419_195745.mb57.gz 10.93MB Simrad multibeam processing format
0183_20060419_205745.mb57.gz 18.77MB Simrad multibeam processing format
0184_20060419_215745.mb57.gz 14.83MB Simrad multibeam processing format
0185_20060419_225745.mb57.gz 16.74MB Simrad multibeam processing format
0186_20060419_235745.mb57.gz 14.39MB Simrad multibeam processing format
0187_20060420_005745.mb57.gz 12.12MB Simrad multibeam processing format
0188_20060420_015745.mb57.gz 10.77MB Simrad multibeam processing format
0189_20060420_025746.mb57.gz 11.86MB Simrad multibeam processing format
0190_20060420_035746.mb57.gz 14.39MB Simrad multibeam processing format
0191_20060420_045746.mb57.gz 8.94MB Simrad multibeam processing format
0192_20060420_055746.mb57.gz 8.60MB Simrad multibeam processing format
0193_20060420_065746.mb57.gz 8.13MB Simrad multibeam processing format
0194_20060420_075746.mb57.gz 4.68MB Simrad multibeam processing format
0195_20060420_085746.mb57.gz 7.55MB Simrad multibeam processing format
0196_20060420_095748.mb57.gz 8.32MB Simrad multibeam processing format
0197_20060420_105748.mb57.gz 6.96MB Simrad multibeam processing format
0198_20060420_115748.mb57.gz 7.06MB Simrad multibeam processing format
0199_20060420_125749.mb57.gz 9.01MB Simrad multibeam processing format
0200_20060420_135749.mb57.gz 8.40MB Simrad multibeam processing format
0201_20060420_145749.mb57.gz 7.55MB Simrad multibeam processing format
0202_20060420_155749.mb57.gz 5.02MB Simrad multibeam processing format
0203_20060420_165749.mb57.gz 7.24MB Simrad multibeam processing format
0204_20060420_175749.mb57.gz 6.65MB Simrad multibeam processing format
0205_20060420_185749.mb57.gz 8.80MB Simrad multibeam processing format
0206_20060420_195749.mb57.gz 4.68MB Simrad multibeam processing format
0207_20060420_205749.mb57.gz 5.10MB Simrad multibeam processing format
0208_20060420_215749.mb57.gz 5.46MB Simrad multibeam processing format
0209_20060420_225749.mb57.gz 5.45MB Simrad multibeam processing format
0210_20060420_235750.mb57.gz 7.40MB Simrad multibeam processing format
0211_20060421_010551.mb57.gz 6.65MB Simrad multibeam processing format
0212_20060421_020551.mb57.gz 0.57MB Simrad multibeam processing format
0213_20060421_030354.mb57.gz 7.92MB Simrad multibeam processing format
0214_20060421_040354.mb57.gz 4.07MB Simrad multibeam processing format
0215_20060421_050900.mb57.gz 2.51MB Simrad multibeam processing format
0216_20060421_054118.mb57.gz 3.37MB Simrad multibeam processing format
0217_20060421_064118.mb57.gz 5.17MB Simrad multibeam processing format
0218_20060421_074118.mb57.gz 7.70MB Simrad multibeam processing format
0219_20060421_090614.mb57.gz 0.69MB Simrad multibeam processing format
0220_20060421_113616.mb57.gz 4.57MB Simrad multibeam processing format
0221_20060421_125500.mb57.gz 56.7KB Simrad multibeam processing format
0224_20060421_135921.mb57.gz 6.08MB Simrad multibeam processing format
0225_20060421_145921.mb57.gz 6.86MB Simrad multibeam processing format
0226_20060421_155921.mb57.gz 10.24MB Simrad multibeam processing format
0227_20060421_165921.mb57.gz 14.30MB Simrad multibeam processing format
0228_20060421_175921.mb57.gz 10.80MB Simrad multibeam processing format
0229_20060421_185921.mb57.gz 7.91MB Simrad multibeam processing format
0230_20060421_195922.mb57.gz 9.70MB Simrad multibeam processing format
0231_20060421_205922.mb57.gz 14.15MB Simrad multibeam processing format
0232_20060421_215922.mb57.gz 16.96MB Simrad multibeam processing format
0233_20060421_225922.mb57.gz 16.99MB Simrad multibeam processing format
0234_20060421_235922.mb57.gz 16.71MB Simrad multibeam processing format
0235_20060422_005922.mb57.gz 12.54MB Simrad multibeam processing format
0236_20060422_015922.mb57.gz 14.19MB Simrad multibeam processing format
0237_20060422_025920.mb57.gz 0.75MB Simrad multibeam processing format
0238_20060422_064041.mb57.gz 50.4KB Simrad multibeam processing format
0239_20060422_074647.mb57.gz 11.26MB Simrad multibeam processing format
0240_20060422_084647.mb57.gz 10.84MB Simrad multibeam processing format
0241_20060422_094647.mb57.gz 10.62MB Simrad multibeam processing format
0242_20060422_104647.mb57.gz 10.28MB Simrad multibeam processing format
0243_20060422_114648.mb57.gz 10.73MB Simrad multibeam processing format
0244_20060422_124648.mb57.gz 9.81MB Simrad multibeam processing format
0245_20060422_134648.mb57.gz 9.31MB Simrad multibeam processing format
0246_20060422_144648.mb57.gz 8.86MB Simrad multibeam processing format
0247_20060422_154648.mb57.gz 9.47MB Simrad multibeam processing format
0248_20060422_164648.mb57.gz 9.02MB Simrad multibeam processing format
0249_20060422_174648.mb57.gz 9.81MB Simrad multibeam processing format
0250_20060422_184648.mb57.gz 9.13MB Simrad multibeam processing format
0251_20060422_194648.mb57.gz 6.23MB Simrad multibeam processing format
0252_20060422_204648.mb57.gz 7.69MB Simrad multibeam processing format
0253_20060422_214649.mb57.gz 8.26MB Simrad multibeam processing format
0254_20060422_224649.mb57.gz 6.70MB Simrad multibeam processing format
0255_20060422_234649.mb57.gz 6.62MB Simrad multibeam processing format
0256_20060423_004649.mb57.gz 6.84MB Simrad multibeam processing format
0257_20060423_014649.mb57.gz 6.37MB Simrad multibeam processing format
0258_20060423_024649.mb57.gz 5.83MB Simrad multibeam processing format
0259_20060423_034649.mb57.gz 4.06MB Simrad multibeam processing format
0260_20060423_044649.mb57.gz 5.71MB Simrad multibeam processing format
0261_20060423_071059.mb57.gz 55.4KB Simrad multibeam processing format
0262_20060423_071121.mb57.gz 4.10MB Simrad multibeam processing format
0263_20060423_081121.mb57.gz 8.57MB Simrad multibeam processing format
0264_20060423_091121.mb57.gz 9.69MB Simrad multibeam processing format
0265_20060423_101122.mb57.gz 13.31MB Simrad multibeam processing format
0266_20060423_111122.mb57.gz 8.57MB Simrad multibeam processing format
0267_20060423_121122.mb57.gz 11.76MB Simrad multibeam processing format
0268_20060423_131122.mb57.gz 10.57MB Simrad multibeam processing format
0269_20060423_141122.mb57.gz 9.34MB Simrad multibeam processing format
0270_20060423_151122.mb57.gz 9.79MB Simrad multibeam processing format
0271_20060423_161122.mb57.gz 11.95MB Simrad multibeam processing format
0272_20060423_171122.mb57.gz 12.34MB Simrad multibeam processing format
0273_20060423_181122.mb57.gz 7.88MB Simrad multibeam processing format
0274_20060423_191122.mb57.gz 6.44MB Simrad multibeam processing format
0275_20060423_201123.mb57.gz 5.86MB Simrad multibeam processing format
0276_20060423_211123.mb57.gz 7.90MB Simrad multibeam processing format
0277_20060423_221123.mb57.gz 6.80MB Simrad multibeam processing format
0278_20060423_231123.mb57.gz 6.87MB Simrad multibeam processing format
0279_20060424_001123.mb57.gz 4.59MB Simrad multibeam processing format
0280_20060424_011123.mb57.gz 3.77MB Simrad multibeam processing format
0281_20060424_021123.mb57.gz 6.57MB Simrad multibeam processing format
0282_20060424_031123.mb57.gz 5.19MB Simrad multibeam processing format
0283_20060424_041123.mb57.gz 6.26MB Simrad multibeam processing format
0284_20060424_051123.mb57.gz 3.51MB Simrad multibeam processing format
0286_20060424_100339.mb57.gz 7.57MB Simrad multibeam processing format
0287_20060424_122054.mb57.gz 2.91MB Simrad multibeam processing format
0288_20060424_204846.mb57.gz 6.17MB Simrad multibeam processing format
0289_20060424_214846.mb57.gz 8.62MB Simrad multibeam processing format
0290_20060424_224847.mb57.gz 0.92MB Simrad multibeam processing format
0291_20060425_000630.mb57.gz 7.28MB Simrad multibeam processing format
0292_20060425_010630.mb57.gz 8.78MB Simrad multibeam processing format
0293_20060425_020630.mb57.gz 9.66MB Simrad multibeam processing format
0294_20060425_030630.mb57.gz 7.94MB Simrad multibeam processing format
0295_20060425_040630.mb57.gz 6.43MB Simrad multibeam processing format
0296_20060425_050630.mb57.gz 8.94MB Simrad multibeam processing format
0297_20060425_092334.mb57.gz 9.05MB Simrad multibeam processing format
0298_20060425_102349.mb57.gz 1.64MB Simrad multibeam processing format
0299_20060425_104318.mb57.gz 9.96MB Simrad multibeam processing format
0300_20060425_114318.mb57.gz 11.32MB Simrad multibeam processing format
0301_20060425_124318.mb57.gz 10.36MB Simrad multibeam processing format
0302_20060425_134242.mb57.gz 4.52MB Simrad multibeam processing format
0303_20060425_144242.mb57.gz 10.89MB Simrad multibeam processing format
0304_20060425_154242.mb57.gz 7.69MB Simrad multibeam processing format
0305_20060425_164242.mb57.gz 7.55MB Simrad multibeam processing format
0306_20060425_174243.mb57.gz 5.72MB Simrad multibeam processing format
0307_20060425_184243.mb57.gz 6.46MB Simrad multibeam processing format
0308_20060425_194243.mb57.gz 6.18MB Simrad multibeam processing format
0309_20060425_204243.mb57.gz 5.70MB Simrad multibeam processing format
0310_20060425_214243.mb57.gz 3.33MB Simrad multibeam processing format
0311_20060425_222835.mb57.gz 6.72MB Simrad multibeam processing format
0312_20060425_232835.mb57.gz 6.06MB Simrad multibeam processing format
0313_20060426_002835.mb57.gz 6.36MB Simrad multibeam processing format
0314_20060426_012835.mb57.gz 6.64MB Simrad multibeam processing format
0315_20060426_022836.mb57.gz 7.47MB Simrad multibeam processing format
0316_20060426_032836.mb57.gz 7.00MB Simrad multibeam processing format
0317_20060426_042836.mb57.gz 7.86MB Simrad multibeam processing format
0318_20060426_052836.mb57.gz 6.12MB Simrad multibeam processing format
0319_20060426_062836.mb57.gz 6.94MB Simrad multibeam processing format
0320_20060426_072836.mb57.gz 8.41MB Simrad multibeam processing format
0321_20060426_082836.mb57.gz 7.89MB Simrad multibeam processing format
0322_20060426_092836.mb57.gz 7.57MB Simrad multibeam processing format
0323_20060426_102837.mb57.gz 7.80MB Simrad multibeam processing format
0324_20060426_112837.mb57.gz 6.87MB Simrad multibeam processing format
0325_20060426_122837.mb57.gz 7.95MB Simrad multibeam processing format
0326_20060426_132837.mb57.gz 7.55MB Simrad multibeam processing format
0327_20060426_142837.mb57.gz 9.58MB Simrad multibeam processing format
0328_20060426_152837.mb57.gz 10.17MB Simrad multibeam processing format
0329_20060426_162837.mb57.gz 7.91MB Simrad multibeam processing format
0330_20060426_172837.mb57.gz 8.03MB Simrad multibeam processing format
0331_20060426_182837.mb57.gz 8.40MB Simrad multibeam processing format
0332_20060426_192838.mb57.gz 9.67MB Simrad multibeam processing format
0333_20060426_202838.mb57.gz 9.24MB Simrad multibeam processing format
0334_20060426_212838.mb57.gz 6.61MB Simrad multibeam processing format
0335_20060426_222838.mb57.gz 6.61MB Simrad multibeam processing format
0336_20060426_232838.mb57.gz 6.47MB Simrad multibeam processing format
0337_20060427_002838.mb57.gz 6.62MB Simrad multibeam processing format
0338_20060427_012838.mb57.gz 12.49MB Simrad multibeam processing format
0339_20060427_022838.mb57.gz 12.75MB Simrad multibeam processing format
0340_20060427_032838.mb57.gz 8.04MB Simrad multibeam processing format
0341_20060427_042839.mb57.gz 10.18MB Simrad multibeam processing format
0342_20060427_052839.mb57.gz 8.79MB Simrad multibeam processing format
0343_20060427_062839.mb57.gz 6.62MB Simrad multibeam processing format
0344_20060427_072839.mb57.gz 6.24MB Simrad multibeam processing format
0345_20060427_082839.mb57.gz 7.31MB Simrad multibeam processing format
0346_20060427_092839.mb57.gz 0.87MB Simrad multibeam processing format
0347_20060427_100442.mb57.gz 7.2KB Simrad multibeam processing format
0348_20060427_101116.mb57.gz 10.69MB Simrad multibeam processing format
0349_20060427_111116.mb57.gz 10.53MB Simrad multibeam processing format
0350_20060427_121116.mb57.gz 149.6KB Simrad multibeam processing format
0351_20060427_123838.mb57.gz 10.38MB Simrad multibeam processing format
0352_20060427_133838.mb57.gz 11.16MB Simrad multibeam processing format
0353_20060427_143838.mb57.gz 6.54MB Simrad multibeam processing format
0355_20060428_163837.mb57.gz 17.73MB Simrad multibeam processing format
0356_20060428_173839.mb57.gz 15.95MB Simrad multibeam processing format
0357_20060428_183839.mb57.gz 13.63MB Simrad multibeam processing format
0358_20060428_193839.mb57.gz 11.36MB Simrad multibeam processing format
0359_20060428_203839.mb57.gz 9.31MB Simrad multibeam processing format
0360_20060428_213839.mb57.gz 8.54MB Simrad multibeam processing format
0361_20060428_223839.mb57.gz 8.06MB Simrad multibeam processing format
0362_20060428_233840.mb57.gz 5.32MB Simrad multibeam processing format
0363_20060429_003840.mb57.gz 3.29MB Simrad multibeam processing format
0364_20060429_013840.mb57.gz 2.01MB Simrad multibeam processing format
0365_20060429_023840.mb57.gz 1.94MB Simrad multibeam processing format
0366_20060429_033840.mb57.gz 6.88MB Simrad multibeam processing format
0367_20060429_043840.mb57.gz 4.02MB Simrad multibeam processing format
0368_20060429_053840.mb57.gz 9.19MB Simrad multibeam processing format
0369_20060429_063840.mb57.gz 9.89MB Simrad multibeam processing format
0370_20060429_073840.mb57.gz 10.44MB Simrad multibeam processing format
0371_20060429_083840.mb57.gz 10.19MB Simrad multibeam processing format
0372_20060429_093841.mb57.gz 2.24MB Simrad multibeam processing format
0373_20060429_110725.mb57.gz 8.94MB Simrad multibeam processing format
0374_20060429_120725.mb57.gz 7.58MB Simrad multibeam processing format
0375_20060429_130725.mb57.gz 12.24MB Simrad multibeam processing format
0376_20060429_140725.mb57.gz 11.69MB Simrad multibeam processing format
0377_20060429_150725.mb57.gz 8.60MB Simrad multibeam processing format
0378_20060429_160725.mb57.gz 11.71MB Simrad multibeam processing format
0379_20060429_170726.mb57.gz 15.31MB Simrad multibeam processing format
0380_20060429_180726.mb57.gz 9.12MB Simrad multibeam processing format
0381_20060429_190726.mb57.gz 15.30MB Simrad multibeam processing format
0382_20060429_200726.mb57.gz 22.92MB Simrad multibeam processing format
0383_20060429_210726.mb57.gz 6.00MB Simrad multibeam processing format
0384_20060429_211944.mb57.gz 23.77MB Simrad multibeam processing format
0385_20060429_221944.mb57.gz 33.90MB Simrad multibeam processing format
0386_20060429_231945.mb57.gz 29.19MB Simrad multibeam processing format
0387_20060430_001945.mb57.gz 28.63MB Simrad multibeam processing format
0388_20060430_011945.mb57.gz 16.90MB Simrad multibeam processing format
0389_20060430_020701.mb57.gz 13.73MB Simrad multibeam processing format
0391_20060430_040701.mb57.gz 28.15MB Simrad multibeam processing format
0392_20060430_050701.mb57.gz 21.88MB Simrad multibeam processing format
0393_20060430_060701.mb57.gz 20.29MB Simrad multibeam processing format
0394_20060430_070702.mb57.gz 13.17MB Simrad multibeam processing format
0395_20060430_080702.mb57.gz 19.00MB Simrad multibeam processing format
0396_20060430_090702.mb57.gz 13.41MB Simrad multibeam processing format
0398_20060430_175035.mb57.gz 0.65MB Simrad multibeam processing format
0399_20060430_183642.mb57.gz 4.88MB Simrad multibeam processing format
0400_20060430_193642.mb57.gz 5.06MB Simrad multibeam processing format
0401_20060430_203642.mb57.gz 4.70MB Simrad multibeam processing format
0402_20060430_213642.mb57.gz 4.76MB Simrad multibeam processing format
0403_20060430_223642.mb57.gz 4.59MB Simrad multibeam processing format
0404_20060430_233642.mb57.gz 4.14MB Simrad multibeam processing format
0405_20060501_003642.mb57.gz 5.07MB Simrad multibeam processing format
0406_20060501_013643.mb57.gz 5.49MB Simrad multibeam processing format
0407_20060501_023643.mb57.gz 5.31MB Simrad multibeam processing format
0408_20060501_033643.mb57.gz 5.93MB Simrad multibeam processing format
0409_20060501_043643.mb57.gz 6.08MB Simrad multibeam processing format
0410_20060501_053643.mb57.gz 6.20MB Simrad multibeam processing format
0411_20060501_063643.mb57.gz 6.08MB Simrad multibeam processing format
0412_20060501_073643.mb57.gz 5.94MB Simrad multibeam processing format
0413_20060501_083644.mb57.gz 5.87MB Simrad multibeam processing format
0414_20060501_093644.mb57.gz 5.92MB Simrad multibeam processing format
0415_20060501_103644.mb57.gz 5.91MB Simrad multibeam processing format
0416_20060501_113644.mb57.gz 5.76MB Simrad multibeam processing format
0417_20060501_123644.mb57.gz 5.90MB Simrad multibeam processing format
0418_20060501_133644.mb57.gz 5.84MB Simrad multibeam processing format
0419_20060501_143644.mb57.gz 5.71MB Simrad multibeam processing format
0420_20060501_153645.mb57.gz 5.66MB Simrad multibeam processing format
0421_20060501_163645.mb57.gz 5.22MB Simrad multibeam processing format
0422_20060501_173645.mb57.gz 5.70MB Simrad multibeam processing format
0423_20060501_183645.mb57.gz 6.76MB Simrad multibeam processing format
0424_20060501_193645.mb57.gz 6.66MB Simrad multibeam processing format
0425_20060501_203645.mb57.gz 6.43MB Simrad multibeam processing format
0426_20060501_213645.mb57.gz 6.33MB Simrad multibeam processing format
0427_20060501_223645.mb57.gz 6.40MB Simrad multibeam processing format
0428_20060501_233645.mb57.gz 5.79MB Simrad multibeam processing format
0429_20060502_021038.mb57.gz 4.88MB Simrad multibeam processing format
0430_20060502_031038.mb57.gz 5.56MB Simrad multibeam processing format
0431_20060502_041038.mb57.gz 5.90MB Simrad multibeam processing format
0432_20060502_051038.mb57.gz 5.63MB Simrad multibeam processing format
0433_20060502_061038.mb57.gz 5.45MB Simrad multibeam processing format
0434_20060502_071038.mb57.gz 5.55MB Simrad multibeam processing format
0435_20060502_081038.mb57.gz 7.78MB Simrad multibeam processing format
0436_20060502_091039.mb57.gz 9.93MB Simrad multibeam processing format
0437_20060502_101036.mb57.gz 5.52MB Simrad multibeam processing format
0438_20060502_104008.mb57.gz 11.59MB Simrad multibeam processing format
0439_20060502_114008.mb57.gz 12.46MB Simrad multibeam processing format
0440_20060502_124008.mb57.gz 12.68MB Simrad multibeam processing format
0441_20060502_134008.mb57.gz 11.79MB Simrad multibeam processing format
0442_20060502_144008.mb57.gz 8.10MB Simrad multibeam processing format
0443_20060502_154008.mb57.gz 6.81MB Simrad multibeam processing format
0444_20060502_164008.mb57.gz 6.84MB Simrad multibeam processing format
0445_20060502_174009.mb57.gz 5.88MB Simrad multibeam processing format
0446_20060502_184009.mb57.gz 5.10MB Simrad multibeam processing format
0447_20060502_194009.mb57.gz 4.98MB Simrad multibeam processing format
0448_20060502_204009.mb57.gz 4.36MB Simrad multibeam processing format
0449_20060502_214009.mb57.gz 4.61MB Simrad multibeam processing format
0450_20060502_224009.mb57.gz 5.20MB Simrad multibeam processing format
0451_20060502_234009.mb57.gz 5.17MB Simrad multibeam processing format
0452_20060503_004010.mb57.gz 4.60MB Simrad multibeam processing format
0453_20060503_014010.mb57.gz 6.52MB Simrad multibeam processing format
0454_20060503_024010.mb57.gz 8.35MB Simrad multibeam processing format
0455_20060503_034010.mb57.gz 4.59MB Simrad multibeam processing format
0456_20060503_044010.mb57.gz 5.61MB Simrad multibeam processing format
0457_20060503_054010.mb57.gz 4.90MB Simrad multibeam processing format
0458_20060503_064010.mb57.gz 4.88MB Simrad multibeam processing format
0459_20060503_074010.mb57.gz 6.52MB Simrad multibeam processing format
0460_20060503_084010.mb57.gz 8.31MB Simrad multibeam processing format
0461_20060503_094011.mb57.gz 10.28MB Simrad multibeam processing format
0462_20060503_104011.mb57.gz 6.49MB Simrad multibeam processing format
0463_20060503_114011.mb57.gz 5.96MB Simrad multibeam processing format
0464_20060503_124011.mb57.gz 6.01MB Simrad multibeam processing format
0465_20060503_134011.mb57.gz 5.61MB Simrad multibeam processing format
0466_20060503_144011.mb57.gz 5.70MB Simrad multibeam processing format
0467_20060503_154012.mb57.gz 5.76MB Simrad multibeam processing format
0468_20060503_164012.mb57.gz 5.51MB Simrad multibeam processing format
0469_20060503_174012.mb57.gz 5.52MB Simrad multibeam processing format
0470_20060503_184012.mb57.gz 5.42MB Simrad multibeam processing format
0471_20060503_194012.mb57.gz 5.57MB Simrad multibeam processing format
0472_20060503_204012.mb57.gz 5.28MB Simrad multibeam processing format
0473_20060503_214012.mb57.gz 4.81MB Simrad multibeam processing format
0474_20060503_224012.mb57.gz 4.60MB Simrad multibeam processing format
0475_20060503_234013.mb57.gz 4.73MB Simrad multibeam processing format
0476_20060504_004013.mb57.gz 4.59MB Simrad multibeam processing format
0477_20060504_014013.mb57.gz 4.47MB Simrad multibeam processing format
0478_20060504_024013.mb57.gz 4.22MB Simrad multibeam processing format
0479_20060504_034013.mb57.gz 4.00MB Simrad multibeam processing format
0480_20060504_044013.mb57.gz 4.00MB Simrad multibeam processing format
0481_20060504_054013.mb57.gz 4.44MB Simrad multibeam processing format
0482_20060504_064013.mb57.gz 4.61MB Simrad multibeam processing format
0483_20060504_074013.mb57.gz 4.53MB Simrad multibeam processing format
0484_20060504_084013.mb57.gz 4.65MB Simrad multibeam processing format
0485_20060504_094014.mb57.gz 4.49MB Simrad multibeam processing format
0486_20060504_104014.mb57.gz 4.73MB Simrad multibeam processing format
0487_20060504_114014.mb57.gz 4.41MB Simrad multibeam processing format
0488_20060504_124014.mb57.gz 4.47MB Simrad multibeam processing format
0489_20060504_134014.mb57.gz 4.56MB Simrad multibeam processing format
0490_20060504_144014.mb57.gz 0.74MB Simrad multibeam processing format
0491_20060504_145009.mb57.gz 4.62MB Simrad multibeam processing format
0492_20060504_155009.mb57.gz 4.41MB Simrad multibeam processing format
0493_20060504_165009.mb57.gz 4.32MB Simrad multibeam processing format
0494_20060504_175009.mb57.gz 4.16MB Simrad multibeam processing format
0495_20060504_185009.mb57.gz 4.21MB Simrad multibeam processing format
0496_20060504_195010.mb57.gz 4.86MB Simrad multibeam processing format
0497_20060504_205010.mb57.gz 4.84MB Simrad multibeam processing format
0498_20060504_215010.mb57.gz 5.12MB Simrad multibeam processing format
0499_20060504_225010.mb57.gz 5.02MB Simrad multibeam processing format
0500_20060504_235010.mb57.gz 5.14MB Simrad multibeam processing format
0501_20060505_005010.mb57.gz 5.40MB Simrad multibeam processing format
0502_20060505_015010.mb57.gz 2.74MB Simrad multibeam processing format
0503_20060505_022405.mb57.gz 4.42MB Simrad multibeam processing format
0504_20060505_032405.mb57.gz 4.55MB Simrad multibeam processing format
0505_20060505_042406.mb57.gz 4.93MB Simrad multibeam processing format
0506_20060505_052406.mb57.gz 4.76MB Simrad multibeam processing format
0507_20060505_062406.mb57.gz 1.66MB Simrad multibeam processing format
0508_20060505_064050.mb57.gz 4.56MB Simrad multibeam processing format
0509_20060505_074050.mb57.gz 4.48MB Simrad multibeam processing format
0510_20060505_084050.mb57.gz 4.42MB Simrad multibeam processing format
0511_20060505_094050.mb57.gz 4.19MB Simrad multibeam processing format
0512_20060505_104051.mb57.gz 4.18MB Simrad multibeam processing format
0513_20060505_114051.mb57.gz 4.15MB Simrad multibeam processing format
0514_20060505_124051.mb57.gz 4.55MB Simrad multibeam processing format
0515_20060505_134051.mb57.gz 4.53MB Simrad multibeam processing format
0516_20060505_144051.mb57.gz 3.06MB Simrad multibeam processing format

Metadata Files: 1

Files File Size Description
NBP0603_Multibeam.xml NGDC created ISO metadata